Location: Novokuznetsk
(53.7500°N, 87.1000°E)
Time: 20:19:23
(UTC+06:00)

ISS - Pass Details

Date: 06 March 2021
Orbit: 418 x 422 km, 51.6° (Epoch: 16 April)

Event Time Altitude Azimuth Distance (km) Brightness Sun altitude
Exits shadow 04:28:47 50° 137° (SE) 545 -3.1 -21.2°
Drops below altitude 10° 04:31:31 10° 104° (ESE) 1,499 -0.2 -20.8°
Sets 04:33:38 0° 100° (E) 2,363 1.1 -20.5°
